Radiation Dose at Monitoring Post of Fukushima Daini Nuclear Power Station
Date,Time,MP-1(microSv/h),MP-2(microSv/h),MP-3(microSv/h),MP-4(microSv/h),MP-5(microSv/h),MP-6(microSv/h),MP-7(microSv/h),Wind Direction,Wind Velocity(m/s),Rain
2020/08/15,00:00,0.179,0.165,0.272,0.259,0.247,0.140,0.085,southwest,5.7,No
2020/08/15,00:10,0.179,0.163,0.270,0.256,0.251,0.140,0.085,southwest,4.8,No
2020/08/15,00:20,0.180,0.165,0.271,0.260,0.252,0.140,0.086,southwest,4.2,No
2020/08/15,00:30,0.180,0.165,0.272,0.257,0.249,0.140,0.085,southwest,4.6,No
2020/08/15,00:40,0.179,0.164,0.270,0.257,0.247,0.141,0.085,southwest,5.3,No
2020/08/15,00:50,0.180,0.163,0.271,0.259,0.253,0.140,0.085,southwest,5.0,No
2020/08/15,01:00,0.179,0.165,0.272,0.261,0.251,0.141,0.085,southwest,5.3,No
2020/08/15,01:10,0.178,0.163,0.270,0.256,0.248,0.141,0.086,west-southwest,4.9,No
2020/08/15,01:20,0.180,0.164,0.271,0.257,0.250,0.140,0.085,west-southwest,4.1,No
2020/08/15,01:30,0.180,0.164,0.272,0.259,0.251,0.140,0.086,west-southwest,4.7,No
2020/08/15,01:40,0.179,0.164,0.271,0.256,0.248,0.140,0.086,west-southwest,4.6,No
2020/08/15,01:50,0.180,0.164,0.272,0.258,0.247,0.140,0.085,southwest,4.0,No
2020/08/15,02:00,0.181,0.164,0.272,0.259,0.252,0.139,0.085,west-southwest,3.4,No
2020/08/15,02:10,0.179,0.164,0.270,0.257,0.249,0.141,0.085,west-southwest,3.0,No
2020/08/15,02:20,0.178,0.163,0.270,0.258,0.248,0.141,0.085,southwest,4.0,No
2020/08/15,02:30,0.180,0.165,0.273,0.261,0.250,0.140,0.086,southwest,4.1,No
2020/08/15,02:40,0.179,0.162,0.269,0.257,0.252,0.141,0.086,west-southwest,3.7,No
2020/08/15,02:50,0.179,0.164,0.271,0.257,0.250,0.140,0.085,west,2.8,No
2020/08/15,03:00,0.181,0.165,0.272,0.260,0.248,0.141,0.085,west,3.3,No
2020/08/15,03:10,0.180,0.163,0.270,0.257,0.250,0.141,0.085,west-southwest,3.0,No
2020/08/15,03:20,0.179,0.164,0.270,0.256,0.250,0.141,0.085,west,2.3,No
2020/08/15,03:30,0.181,0.165,0.272,0.259,0.248,0.140,0.085,west-southwest,2.8,No
2020/08/15,03:40,0.180,0.164,0.271,0.259,0.247,0.141,0.085,southwest,3.2,No
2020/08/15,03:50,0.179,0.164,0.269,0.255,0.249,0.141,0.085,west-southwest,2.8,No
2020/08/15,04:00,0.179,0.164,0.271,0.257,0.252,0.141,0.085,west,2.3,No
2020/08/15,04:10,0.181,0.163,0.272,0.260,0.250,0.140,0.085,west,3.9,No
2020/08/15,04:20,0.178,0.164,0.270,0.258,0.248,0.141,0.085,west,5.5,No
2020/08/15,04:30,0.179,0.165,0.269,0.255,0.249,0.140,0.085,west-southwest,6.0,No
2020/08/15,04:40,0.181,0.164,0.271,0.258,0.252,0.140,0.085,west-southwest,6.2,No
2020/08/15,04:50,0.179,0.163,0.268,0.258,0.248,0.141,0.086,west-southwest,5.6,No
2020/08/15,05:00,0.177,0.164,0.269,0.256,0.247,0.140,0.085,west-southwest,5.0,No
2020/08/15,05:10,0.180,0.164,0.272,0.258,0.251,0.139,0.085,west-southwest,4.0,No
2020/08/15,05:20,0.180,0.163,0.271,0.260,0.251,0.140,0.086,southwest,4.0,No
2020/08/15,05:30,0.179,0.165,0.268,0.258,0.250,0.140,0.086,west-southwest,3.6,No
2020/08/15,05:40,0.179,0.164,0.272,0.256,0.247,0.140,0.084,west-southwest,4.1,No
2020/08/15,05:50,0.181,0.163,0.272,0.258,0.248,0.139,0.085,west,5.3,No
2020/08/15,06:00,0.180,0.162,0.270,0.260,0.251,0.141,0.085,west,5.8,No
2020/08/15,06:10,0.179,0.164,0.267,0.259,0.250,0.140,0.084,west,6.7,No
2020/08/15,06:20,0.179,0.165,0.268,0.255,0.247,0.139,0.085,west-southwest,6.9,No
2020/08/15,06:30,0.180,0.164,0.272,0.255,0.248,0.140,0.084,west-southwest,7.4,No
2020/08/15,06:40,0.180,0.162,0.272,0.257,0.247,0.141,0.085,west-southwest,6.8,No
2020/08/15,06:50,0.179,0.163,0.270,0.259,0.247,0.139,0.085,west-southwest,6.6,No
2020/08/15,07:00,0.177,0.164,0.269,0.257,0.248,0.140,0.085,west-southwest,6.0,No
2020/08/15,07:10,0.178,0.165,0.269,0.256,0.247,0.140,0.084,west-southwest,5.9,No
2020/08/15,07:20,0.180,0.164,0.268,0.254,0.249,0.140,0.086,west-southwest,5.9,No
2020/08/15,07:30,0.180,0.164,0.269,0.256,0.247,0.141,0.085,west-southwest,5.3,No
2020/08/15,07:40,0.179,0.163,0.270,0.256,0.249,0.140,0.085,west-southwest,5.8,No
2020/08/15,07:50,0.180,0.164,0.271,0.258,0.248,0.140,0.086,west-southwest,4.1,No
2020/08/15,08:00,0.179,0.164,0.270,0.258,0.249,0.140,0.087,southwest,4.0,No
2020/08/15,08:10,0.179,0.164,0.272,0.258,0.249,0.140,0.086,southwest,4.8,No
2020/08/15,08:20,0.181,0.165,0.272,0.259,0.250,0.141,0.087,west-southwest,3.2,No
2020/08/15,08:30,0.180,0.164,0.274,0.259,0.251,0.140,0.086,west-southwest,4.5,No
2020/08/15,08:40,0.180,0.165,0.274,0.259,0.251,0.141,0.086,west-southwest,4.7,No
2020/08/15,08:50,0.180,0.164,0.272,0.261,0.252,0.141,0.086,west-southwest,5.8,No
2020/08/15,09:00,0.180,0.165,0.273,0.260,0.251,0.141,0.086,west-southwest,7.8,No
2020/08/15,09:10,0.180,0.166,0.273,0.260,0.253,0.141,0.086,west-southwest,5.6,No
2020/08/15,09:20,0.180,0.166,0.273,0.261,0.253,0.141,0.087,west-southwest,7.1,No
2020/08/15,09:30,0.181,0.166,0.273,0.261,0.253,0.142,0.087,west-southwest,6.9,No
2020/08/15,09:40,0.182,0.167,0.274,0.261,0.253,0.141,0.086,west-southwest,4.4,No
2020/08/15,09:50,0.182,0.168,0.273,0.261,0.254,0.143,0.087,west,5.2,No
2020/08/15,10:00,0.182,0.167,0.273,0.263,0.251,0.142,0.087,west,3.6,No
2020/08/15,10:10,0.181,0.166,0.273,0.261,0.251,0.139,0.086,west-southwest,2.1,No
2020/08/15,10:20,0.183,0.165,0.272,0.260,0.251,0.140,0.085,east,1.3,No
2020/08/15,10:30,0.180,0.165,0.272,0.258,0.249,0.137,0.085,southeast,2.0,No
2020/08/15,10:40,0.181,0.164,0.270,0.258,0.247,0.138,0.084,southeast,2.7,No
2020/08/15,10:50,0.180,0.164,0.268,0.255,0.245,0.139,0.085,south,4.1,No
2020/08/15,11:00,0.180,0.163,0.267,0.255,0.246,0.139,0.084,south-southeast,5.2,No
2020/08/15,11:10,0.179,0.163,0.268,0.256,0.247,0.138,0.084,south,4.7,No
2020/08/15,11:20,0.179,0.163,0.271,0.257,0.246,0.138,0.085,south,6.0,No
2020/08/15,11:30,0.179,0.164,0.272,0.257,0.248,0.138,0.085,south-southeast,4.9,No
2020/08/15,11:40,0.179,0.164,0.271,0.258,0.247,0.140,0.085,south-southeast,4.3,No
2020/08/15,11:50,0.179,0.164,0.271,0.258,0.246,0.139,0.085,south,4.3,No
2020/08/15,12:00,0.179,0.164,0.272,0.259,0.248,0.139,0.086,south,4.6,No
2020/08/15,12:10,0.180,0.165,0.272,0.259,0.248,0.140,0.084,south,2.9,No
2020/08/15,12:20,0.180,0.165,0.271,0.260,0.248,0.139,0.085,south,3.9,No
2020/08/15,12:30,0.180,0.165,0.273,0.259,0.247,0.139,0.085,southwest,2.9,No
2020/08/15,12:40,0.181,0.165,0.273,0.260,0.248,0.140,0.085,south-southwest,4.8,No
2020/08/15,12:50,0.180,0.166,0.273,0.259,0.249,0.139,0.086,south,3.5,No
2020/08/15,13:00,0.180,0.165,0.273,0.260,0.248,0.139,0.086,south,4.4,No
2020/08/15,13:10,0.183,0.166,0.275,0.261,0.249,0.139,0.085,south,4.7,No
2020/08/15,13:20,0.181,0.167,0.273,0.262,0.249,0.139,0.085,south-southeast,5.0,No
2020/08/15,13:30,0.181,0.167,0.273,0.261,0.248,0.140,0.086,south,6.1,No
2020/08/15,13:40,0.182,0.166,0.273,0.261,0.249,0.138,0.085,south,5.7,No
2020/08/15,13:50,0.182,0.167,0.272,0.260,0.248,0.139,0.085,south,5.1,No
2020/08/15,14:00,0.182,0.165,0.270,0.259,0.249,0.139,0.086,south,5.3,No
2020/08/15,14:10,0.181,0.166,0.272,0.260,0.249,0.139,0.085,south,4.4,No
2020/08/15,14:20,0.180,0.165,0.272,0.258,0.249,0.140,0.085,south,5.1,No
2020/08/15,14:30,0.180,0.163,0.270,0.257,0.249,0.139,0.086,south,4.7,No
2020/08/15,14:40,0.180,0.164,0.271,0.258,0.250,0.140,0.086,south,4.8,No
2020/08/15,14:50,0.180,0.165,0.272,0.261,0.249,0.140,0.084,south,4.4,No
2020/08/15,15:00,0.180,0.165,0.272,0.258,0.249,0.139,0.085,south,5.0,No
2020/08/15,15:10,0.181,0.164,0.270,0.258,0.248,0.139,0.084,south,5.0,No
2020/08/15,15:20,0.180,0.165,0.273,0.258,0.249,0.140,0.085,south,4.2,No
2020/08/15,15:30,0.181,0.165,0.271,0.259,0.250,0.139,0.085,south,4.3,No
2020/08/15,15:40,0.181,0.165,0.271,0.259,0.248,0.139,0.085,south,3.7,No
2020/08/15,15:50,0.180,0.166,0.272,0.259,0.248,0.140,0.086,south,3.1,No
2020/08/15,16:00,0.180,0.165,0.272,0.259,0.247,0.140,0.084,south,2.8,No
2020/08/15,16:10,0.180,0.165,0.271,0.258,0.249,0.140,0.086,south,2.6,No
2020/08/15,16:20,0.181,0.165,0.272,0.258,0.248,0.140,0.086,south-southwest,2.1,No
2020/08/15,16:30,0.179,0.164,0.272,0.258,0.248,0.141,0.085,south-southwest,0.9,No
2020/08/15,16:40,0.182,0.165,0.273,0.258,0.249,0.141,0.085,south-southwest,1.1,No
2020/08/15,16:50,0.180,0.164,0.273,0.258,0.250,0.141,0.085,-,CALM,No
2020/08/15,17:00,0.179,0.164,0.271,0.257,0.252,0.141,0.085,east,1.3,No
2020/08/15,17:10,0.179,0.164,0.272,0.258,0.252,0.140,0.084,southeast,3.0,No
2020/08/15,17:20,0.179,0.164,0.271,0.257,0.252,0.141,0.085,southeast,0.7,No
2020/08/15,17:30,0.180,0.163,0.271,0.257,0.250,0.141,0.085,-,CALM,No
2020/08/15,17:40,0.179,0.164,0.269,0.259,0.249,0.140,0.086,east-southeast,1.4,No
2020/08/15,17:50,0.179,0.164,0.269,0.258,0.248,0.139,0.085,east-southeast,1.4,No
2020/08/15,18:00,0.179,0.165,0.270,0.258,0.249,0.139,0.085,east,0.6,No
2020/08/15,18:10,0.180,0.164,0.269,0.257,0.248,0.141,0.085,-,CALM,No
2020/08/15,18:20,0.179,0.164,0.270,0.257,0.248,0.141,0.085,west-southwest,0.7,No
2020/08/15,18:30,0.178,0.164,0.270,0.256,0.249,0.140,0.085,north-northwest,0.8,No
2020/08/15,18:40,0.178,0.164,0.271,0.256,0.249,0.141,0.085,north-northwest,2.0,No
2020/08/15,18:50,0.178,0.163,0.270,0.261,0.249,0.141,0.085,north-northwest,4.8,No
2020/08/15,19:00,0.182,0.164,0.270,0.262,0.249,0.141,0.085,north-northwest,5.5,No
2020/08/15,19:10,0.181,0.163,0.271,0.258,0.248,0.142,0.085,north-northwest,3.4,No
2020/08/15,19:20,0.180,0.165,0.271,0.257,0.248,0.139,0.085,north-northwest,4.0,No
2020/08/15,19:30,0.179,0.165,0.270,0.257,0.247,0.141,0.086,north,3.2,No
2020/08/15,19:40,0.178,0.164,0.271,0.257,0.248,0.142,0.085,north-northeast,2.5,No
2020/08/15,19:50,0.180,0.164,0.270,0.257,0.248,0.141,0.086,north-northeast,0.9,No
2020/08/15,20:00,0.181,0.164,0.272,0.257,0.253,0.141,0.085,north-northwest,1.2,No
2020/08/15,20:10,0.181,0.163,0.275,0.260,0.253,0.140,0.085,north-northeast,1.4,No
2020/08/15,20:20,0.180,0.166,0.273,0.261,0.250,0.141,0.086,north,1.6,No
2020/08/15,20:30,0.178,0.165,0.272,0.259,0.249,0.141,0.085,north-northwest,1.6,No
2020/08/15,20:40,0.181,0.164,0.270,0.259,0.249,0.140,0.085,northwest,1.8,No
2020/08/15,20:50,0.182,0.163,0.269,0.256,0.248,0.141,0.085,north-northwest,2.0,No
2020/08/15,21:00,0.181,0.164,0.270,0.258,0.250,0.140,0.086,north-northwest,1.7,No
2020/08/15,21:10,0.180,0.166,0.275,0.260,0.254,0.141,0.086,northwest,1.9,No
2020/08/15,21:20,0.178,0.164,0.272,0.261,0.251,0.141,0.086,north-northwest,1.3,No
2020/08/15,21:30,0.180,0.164,0.272,0.258,0.250,0.141,0.085,north-northeast,2.1,No
2020/08/15,21:40,0.181,0.164,0.271,0.256,0.248,0.142,0.084,north,2.0,No
2020/08/15,21:50,0.180,0.163,0.270,0.257,0.248,0.140,0.085,north-northwest,2.1,No
2020/08/15,22:00,0.179,0.165,0.275,0.260,0.250,0.141,0.086,north,1.8,No
2020/08/15,22:10,0.178,0.165,0.274,0.261,0.251,0.140,0.085,north-northwest,2.1,No
2020/08/15,22:20,0.181,0.163,0.271,0.260,0.250,0.142,0.085,north-northwest,1.7,No
2020/08/15,22:30,0.182,0.163,0.270,0.257,0.248,0.140,0.086,north-northwest,1.6,No
2020/08/15,22:40,0.181,0.165,0.271,0.256,0.248,0.141,0.086,northwest,1.8,No
2020/08/15,22:50,0.180,0.165,0.273,0.260,0.249,0.141,0.086,north-northwest,0.9,No
2020/08/15,23:00,0.179,0.165,0.273,0.261,0.253,0.141,0.085,west-northwest,0.9,No
2020/08/15,23:10,0.181,0.163,0.272,0.260,0.253,0.142,0.086,west-northwest,1.0,No
2020/08/15,23:20,0.181,0.163,0.270,0.257,0.250,0.141,0.086,-,CALM,No
2020/08/15,23:30,0.180,0.165,0.270,0.256,0.248,0.140,0.086,west,1.4,No
2020/08/15,23:40,0.179,0.166,0.273,0.259,0.247,0.141,0.086,west,1.0,No
2020/08/15,23:50,0.180,0.166,0.275,0.260,0.247,0.142,0.086,northwest,1.2,No
